カタログに戻る

STARLINK-3401

運用中通信VLEO
NORAD 51465·PAYLOAD·🇺🇸 United States

打ち上げ Feb 3, 2022 から Cape Canaveral Space Force Station

Loading…

次のパス (今後24時間)

TLE

最新Source: CelesTrak SupGP

元期: Sep 14, 2026, 20:47 UTC

1 51465C 22010K   26257.86645833  .00172080  00000+0  44386-2 0  2572
2 51465  53.1622 143.6268 0001589  88.7497 269.2928 15.38517856    16

AllMySatでSTARLINK-3401をリアルタイム追跡

Download on the App Store